Miscellaneous Local Product
Issued by NWS North Platte, NE

Home | Current Version | Previous Version | Graphics & Text | Print | Product List | Glossary On
Versions: 1 2 3 4 5 6 7 8 9 10 11 12 13 14 15 16 17 18 19 20 21 22 23 24 25 26 27 28 29 30 31 32 33 34 35 36 37 38 39 40 41 42 43 44 45 46 47 48 49 50
999
AXUS43 KLBF 241310
MISLBF


WESTERN AND NORTH CENTRAL NEBRASKA HOURLY WEATHER ROUNDUP
NATIONAL WEATHER SERVICE NORTH PLATTE NE
800 AM CDT SAT JUN 24 2017

NOTE: "FAIR" INDICATES FEW OR NO CLOUDS BELOW 12,000 FEET WITH NO
SIGNIFICANT WEATHER AND/OR OBSTRUCTIONS TO VISIBILITY.

NOTE: STATIONS NOT REPORTING VARIABLES SUCH AS SKY/WEATHER OR
PRESSURE ARE PROVIDED BY RAWS AND APRS NETWORKS AND ARE NOT UNDER
NATIONAL WEATHER SERVICE QUALITY CONTROL.

...OBSERVATIONS IN AND NEAR THE EASTERN PANHANDLE OF NEBRASKA...

CITY           SKY/WX    TMP DP  RH WIND       PRES   REMARKS
PINE RIDGE     MOSUNNY   44  36  73 CALM      30.28R
GORDON         FAIR      50  38  63 W3        30.27S
CHADRON        CLOUDY    51  41  68 CALM      30.28R
ALLIANCE       CLOUDY    52  44  74 W5        30.28S
SIDNEY         CLOUDY    55  39  54 E3        30.33R
CRESCENT LAKE    N/A     55  41  60 CALM        N/A
$$

...OBSERVATIONS IN NORTHERN NEBRASKA AND FAR SOUTHERN SOUTH DAKOTA...

CITY           SKY/WX    TMP DP  RH WIND       PRES   REMARKS
WINNER         FAIR      59  35  40 W13       30.18S
VALENTINE      SUNNY     52  33  48 W6        30.24R
THEDFORD       CLOUDY    55  39  54 W6        30.26S
AINSWORTH      SUNNY     55  42  61 W7        30.23R
O`NEILL        SUNNY     54  41  62 W6        30.21R
ORD            PTSUNNY   53  41  63 N3        30.22S
BROKEN BOW     CLOUDY    56  42  59 SW3       30.24S
VALENTINE NWR    N/A     50  39  66 W5          N/A
HALSEY           N/A     55  36  49 CALM        N/A
BUTTE            N/A     55  40  56 SW6         N/A
CHAMBERS         N/A     63  42  47 CALM        N/A
EWING            N/A     54  46  75 W3          N/A
$$

...OBSERVATIONS IN SOUTHWEST NEBRASKA AND FAR NORTHEAST COLORADO...

CITY           SKY/WX    TMP DP  RH WIND       PRES   REMARKS
WRAY           CLOUDY    52  46  82 CALM      30.29S
IMPERIAL       CLOUDY    56  46  69 CALM      30.29R
OGALLALA       CLOUDY    57  48  71 CALM      30.29R
NORTH PLATTE   CLOUDY    55  46  71 W3        30.27R
MCCOOK         CLOUDY    52  48  86 CALM      30.26S
LEXINGTON      CLOUDY    54  47  77 W6        30.26R
STAPLETON        N/A     52  40  64 CALM        N/A
GOTHENBURG       N/A     52  40  63 NW3         N/A
CALLAWAY         N/A     49  46  90 W3          N/A
$$

...OBSERVATIONS IN CENTRAL LINCOLN COUNTY AREA...

CITY           SKY/WX    TMP DP  RH WIND       PRES   REMARKS
N.P. AIRPORT   CLOUDY    55  46  71 W3        30.27R
N.P. DOWNTOWN    N/A     55  45  69 CALM        N/A
N.P. SOUTHEAST   N/A     54  45  71 CALM        N/A
N.P. HILLCREST   N/A     52  44  73 CALM        N/A
$$

...SOME OBSERVATIONS FROM AROUND THE REGION...

CITY           SKY/WX    TMP DP  RH WIND       PRES   REMARKS
DENVER         CLOUDY    54  49  83 E6        30.31R
LIMON          CLOUDY    58  47  66 SE3       30.32R
ASPEN          CLOUDY    47  32  56 SE3       30.35S
LARAMIE        CLOUDY    48  32  53 SE6       30.36S
CASPER         SUNNY     45  34  65 W3        30.34R
CHEYENNE       CLOUDY    53  32  44 CALM      30.35R
SCOTTSBLUFF    CLOUDY    57  41  55 CALM      30.30S
GRAND ISLAND   MOSUNNY   59  46  62 W6        30.23S
OMAHA          MOSUNNY   60  46  59 CALM      30.17R
SIOUX FALLS    MOSUNNY   57  46  66 W5        30.11F
PIERRE         SUNNY     51  37  58 W8        30.15S
RAPID CITY     SUNNY     58  31  35 W10       30.25S
BISMARCK       SUNNY     53  41  63 NW12      30.15S
KANSAS CITY    SUNNY     64  53  67 N5        30.18R
HILL CITY      SUNNY     59  50  72 CALM      30.26R
WICHITA        CLOUDY    68  55  63 CALM      30.21R
DODGE CITY     CLOUDY    65  53  65 E7        30.25R
OKLAHOMA CITY  CLOUDY    70  52  52 E10       30.19R
DALLAS         TSTM      72  71  97 N7        30.11R FOG
AMARILLO       CLOUDY    57  53  86 E13       30.28S
$$




USA.gov is the U.S. government's official web portal to all federal, state and local government web resources and services.